Location: Les Bonfillons
(43.5500°N, 5.5500°E)
Time: 14:15:28
(UTC+00:00)

Daily predictions for brighter satellites

Satellite Brightness Start Highest point End
(mag) Time Altitude Azimuth Time Altitude Azimuth Time Altitude Azimuth
Timation 2 Rocket 4.3 16:55:17 10° SSW 17:01:21 73° WNW 17:07:44 10° NNE
Helios 1A Rocket 4.4 17:02:33 10° S 17:06:22 42° W 17:10:15 10° NNW
ERBS 2.2 17:03:35 10° SW 17:06:54 77° SE 17:10:14 10° NE
Cosmos 2341 Rocket 4.4 17:02:02 10° SSE 17:08:00 43° E 17:13:56 10° NNE
Envisat 3.1 17:03:54 10° SSE 17:08:52 58° ENE 17:13:52 10° N
SKYMED 2 4.4 17:05:10 10° NE 17:08:59 30° E 17:12:48 10° SSE
CZ-4B R/B 4.2 17:09:21 10° NW 17:10:45 13° WNW 17:12:09 10° W
YAOGAN 6 3.2 17:08:21 10° SE 17:11:45 36° ENE 17:15:08 10° N
NOAA 12 4.0 17:10:43 10° SSE 17:15:55 73° ENE 17:21:10 10° N
IRS-1C Rocket 4.3 17:10:57 10° SSE 17:16:12 79° WSW 17:21:29 10° NNW
Cosmos 1626 2.6 17:13:27 10° SSW 17:17:07 65° W 17:20:50 10° N
Cosmos 1812 Rocket 3.6 17:13:17 10° N 17:17:47 80° E 17:22:15 10° S
Cosmos 1300 3.0 17:15:30 10° NNW 17:19:19 70° W 17:23:05 10° S
ATLAS CENTAUR R/B 4.3 17:14:30 10° W 17:19:48 47° NNW 17:33:53 10° NE
Cosmos-2242 3.7 17:16:38 10° N 17:20:32 32° ENE 17:24:24 10° SE
Cosmos 2237 Rocket 2.2 17:15:15 10° NNW 17:20:53 67° ENE 17:26:28 10° SE
Atlas Centaur 2 4.2 17:22:27 10° SSE 17:23:21 10° SSE 17:24:18 10° SE
Cosmos 1269 Rocket 4.0 17:19:51 10° NNW 17:25:09 74° ENE 17:30:25 10° SSE
YAOGAN 1 3.4 17:21:59 10° SE 17:25:42 29° ENE 17:29:27 10° N
SL-8 R/B 4.0 17:21:23 10° SW 17:26:05 55° SSE 17:30:14 13° ENE
ATLAS CENTAUR R/B 3.1 17:25:00 10° N 17:27:12 14° NE 17:28:31 12° ENE
CSL-04 Rocket 4.3 17:22:55 10° SE 17:27:49 35° ENE 17:32:48 10° N
Cosmos 2333 Rocket 3.9 17:23:42 10° NW 17:28:57 38° WSW 17:34:08 10° S
ATLAS 5 CENTAUR R/B 4.1 17:27:56 10° NW 17:30:15 14° NNW 17:32:42 10° N
CZ-4 R/B 1.9 17:26:30 10° SE 17:30:15 39° ENE 17:34:07 10° N
Cosmos 1455 2.9 17:30:22 10° NNE 17:33:48 31° ENE 17:37:13 10° SE
USA 267 4.0 17:28:11 10° NE 17:34:21 46° NNW 17:40:31 10° W
Cosmos 2218 Rocket 4.4 17:30:34 10° SSE 17:36:29 44° E 17:42:29 10° NNE
SL-16 R/B 2.6 17:38:30 10° NNW 17:43:51 40° ENE 17:49:09 10° SE
Cosmos 44 3.3 17:42:50 10° SSW 17:47:20 53° ESE 17:50:34 17° NE
Cosmos 2219 3.5 17:43:39 10° SW 17:49:14 67° WNW 17:54:52 10° NNE
CZ-4 R/B 4.3 17:46:33 10° SSE 17:50:39 76° ENE 17:54:46 10° N
Cosmos 2082 3.9 17:45:31 10° S 17:50:54 50° ESE 17:55:58 12° NE
Ariane Rocket 3.9 17:48:25 10° ESE 17:52:30 25° ENE 17:56:35 10° N
Cosmos 1356 Rocket 4.3 17:49:54 10° NNE 17:53:19 26° ENE 17:55:52 15° ESE
Cosmos 1959 Rocket 4.5 17:49:34 10° S 17:55:36 59° E 18:01:36 10° NNE
NOSS 2-1 (C) 4.5 17:50:21 10° NW 17:55:50 82° NE 18:03:34 10° SE
Cosmos 1953 Rocket 3.5 17:51:28 10° S 17:55:54 65° E 18:00:21 10° NNE
Meteor 1-21 Rocket 4.3 17:50:41 10° SSW 17:56:16 83° W 18:02:01 10° N
Cosmos 1328 3.9 17:52:46 10° S 17:56:39 50° E 18:00:33 10° NNE
COSMO-SKYMED 1 2.6 17:52:51 10° NNE 17:57:13 83° WNW 18:01:34 10° SSW
Cosmos 2297 Rocket 2.3 17:54:00 10° SSW 17:59:38 78° WNW 18:05:21 10° NNE
NOSS 2-1 (D) 4.5 17:54:10 10° NW 17:59:41 87° NE 18:07:28 10° SE
Cosmos 1758 Rocket 3.9 17:56:23 10° SSW 18:00:39 65° W 18:04:57 10° N
Cosmos 1842 Rocket 4.5 17:57:30 10° NNE 18:01:19 27° ENE 18:01:40 26° E
USA 234 4.1 18:02:20 10° SSE 18:08:38 50° SW 18:14:58 10° WNW
Cosmos 2366 rocket 3.9 18:02:52 10° S 18:09:03 73° E 18:15:19 10° NNE
Cosmos 2227 Rocket 2.5 18:06:43 10° SSW 18:12:20 69° WNW 18:18:00 10° NNE
NOAA 11 4.1 18:08:09 10° SSE 18:13:39 80° ENE 18:19:10 10° N
ISS -3.5 18:11:14 10° WSW 18:14:34 62° NNW 18:15:23 44° NNE
H-2A R/B 3.7 18:21:12 17° NNE 18:21:12 17° NNE 18:22:51 10° NNE
Meteor 2-10 Rocket 3.6 18:14:38 10° NNW 18:19:57 80° W 18:25:03 10° S
Cosmos 2251 Rocket 3.4 18:19:35 10° NNW 18:24:54 71° ENE 18:30:12 10° SSE
H-2A ROCKET BODY 4.2 18:20:35 10° WSW 18:25:04 15° SW 18:27:37 10° S
DMSP B5D1-3 4.4 18:22:51 10° NNE 18:27:59 79° ESE 18:33:04 10° S
Cosmos 1939 Rocket 2.9 18:27:38 10° S 18:31:32 74° WSW 18:35:31 10° NNW
Cosmos 1703 3.8 18:29:42 10° SSW 18:33:36 60° W 18:37:13 12° N
Cosmos 1727 Rocket 3.9 18:31:16 10° N 18:37:30 86° E 18:43:40 10° S
Shenzhou-11 Module 3.7 18:35:42 10° WSW 18:37:13 29° WSW 18:37:13 29° WSW
ADEOS Rocket 3.2 18:35:48 10° NNE 18:42:29 73° ESE 18:49:50 10° S
DELTA 2 R/B (1) 3.9 18:41:13 10° W 18:46:41 56° S 18:48:03 44° SE
CZ-4 R/B 4.3 19:02:40 10° SW 19:05:27 18° W 19:08:17 10° NW
ATLAS CENTAUR R/B 2.9 19:02:45 10° NW 19:04:45 28° NW 19:04:45 28° NW
SL-8 R/B 4.2 19:03:55 10° W 19:08:12 54° NW 19:08:12 54° NW
Atlas Centaur 2 3.8 19:07:20 10° SW 19:10:43 21° S 19:10:43 21° S
ATLAS 5 CENTAUR R/B 4.0 19:10:27 10° NNW 19:15:45 58° NE 19:18:33 47° E
USA 267 4.5 19:14:54 26° NNE 19:16:25 28° N 19:21:46 10° WNW
Cosmos 1821 Rocket 4.0 19:11:05 10° S 19:17:27 85° W 19:21:50 22° N
SL-16 R/B 3.8 19:22:53 10° NW 19:27:49 32° WSW 19:32:44 10° SSW
Ariane Rocket 4.0 19:26:24 10° S 19:31:12 43° W 19:36:03 10° NNW
Cosmos 2263 Rocket 4.4 19:50:42 10° SSW 19:51:37 15° SSW 19:51:37 15° SSW
H-2A R/B 4.4 20:01:48 16° NNW 20:01:48 16° NNW 20:02:48 10° NNW
FALCON 9 R/B 4.4 20:10:48 10° WSW 20:16:50 25° SW 20:16:50 25° SW
